Regional Weather Roundup
Issued by NWS New Orleans/Baton Rouge, LA

Home | Current Version | Previous Version | Graphics & Text | Print | Product List | Glossary On
Versions: 1 2 3 4 5 6 7 8 9 10 11 12 13 14 15 16 17 18 19 20 21 22 23 24 25 26 27 28 29 30 31 32 33 34 35 36 37 38 39 40 41 42 43 44 45 46 47 48 49 50
013
ASUS44 KLIX 190210
RWRLIX
NEW ORLEANS REGIONAL WEATHER ROUNDUP
NATIONAL WEATHER SERVICE NEW ORLEANS LA
800 PM CST THU DEC 18 2014

NOTE: "FAIR" INDICATES FEW OR NO CLOUDS BELOW 12,000 FEET WITH NO
      SIGNIFICANT WEATHER AND/OR OBSTRUCTIONS TO VISIBILITY.
      SKY/WX - SKY CONDITION AND SIGNIFICANT WEATHER.
      TMP - AIR TEMPERATURE.     DP    - DEWPOINT TEMPERATURE.
      RH  - RELATIVE HUMIDITY.   PRES  - PRESSURE.
      HI  - HEAT INDEX.          WCI   - WIND CHILL INDEX.

*  THESE STATIONS ARE NOT NWS OR FAA STATIONS AND ARE NOT UNDER
   NWS QUALITY CONTROL.

LAZ038-040-048-061>063-065>067-069-190300-
SOUTHEAST LOUISIANA

CITY           SKY/WX    TMP DP  RH WIND       PRES   REMARKS
N.O. AUDUBON     N/A     59  58  95 MISG        N/A
N.O. INTL ARPT CLOUDY    59  54  83 NE8       30.14R
N.O. LAKEFRONT CLOUDY    60  54  80 E9        30.14S
N.O. DOWNTOWN* MOCLDY    57  52  82 NE5       30.14S
SLIDELL        CLOUDY    60  52  74 N5        30.14R
BATON ROUGE    CLOUDY    57  55  93 N5        30.12S
BOOTHVILLE     CLOUDY    62  58  86 E3        30.13R
BELLE CHASSE   CLOUDY    57  56  96 E7        30.13R
BOGALUSA*      DRIZZLE   54  51  90 N8        30.17S
GALLIANO*      LGT RAIN  64  61  91 MISG      30.13R
NEW ROADS*     CLOUDY    54  53  97 NE3       30.13S
GONZALES*      CLOUDY    59  56  88 E6        30.12S
HAMMOND*       NOT AVBL
HOUMA*         CLOUDY    60  59  96 NE7       30.12R FOG
PORT FOURCHON* NOT AVBL

$$

MSZ070-080>082-190300-
SOUTHERN MISSISSIPPI

CITY           SKY/WX    TMP DP  RH WIND       PRES   REMARKS
MCCOMB         CLOUDY    51  49  92 NE3       30.15R FOG
GULFPORT       CLOUDY    59  49  69 CALM      30.14R
BILOXI         CLOUDY    59  50  73 NE6       30.15R
PASCAGOULA     CLOUDY    57  49  74 CALM      30.16R
STENNIS ARPT*  CLOUDY    57  48  72 CALM      30.14

$$

COASTAL OBSERVATIONS
LAKE AND NEARSHORE STATIONS

STATION/POSITION TIME  TEMP    WIND        PRES    WAVE
                       AIR SEA DIR/SP/G            HT/PER
                 (UTC) (F)     (DEG/KT/KT) (MB)    (FT/S)
PASCAGOULA       0200   59      60/  4/  6 1020.6
WAVELAND YACHT   0200   58     100/  4/  4 1019.8
GRAND ISLE       0200   65 62  140/  7/ 11 1019.2
SOUTHWEST PASS   0200   64                 1019.8
NEW CANAL        0200   59 58   60/ 10/ 11 1020.6
SHELL BEACH      0200   59 60   40/ 13/ 14 1020.0

OFFSHORE STATIONS

STATION/POSITION TIME  TEMP    WIND        PRES    WAVE
                       AIR SEA DIR/SP/G            HT/PER
                 (UTC) (F)     (DEG/KT/KT) (MB)    (FT/S)
64 S DAUPHIN ISL 0200   68 75  130/  6/  8 1019.9    1/ 4

$$




USA.gov is the U.S. government's official web portal to all federal, state and local government web resources and services.